Погода в Салдусе

Погода в Салдусе : погода сейчас, прогноз погоды и архив. Всё, что Вы хотите узнать о погоде в Салдусе!

Поиск расширенной информации на нашем сайте:

Другие новости

Новости СМИ2

Главная страница сайта

Новости сайта

03.07.2017

Напоминаем, что на нашем специализированном сайте Метеоцентр.Азия вы можете получить высокодетализированные автоматические прогнозы погоды по пунктам России, СНГ и мира в авиационном формате (включающие направление и скорость ветра, видимость, явления погоды, количество и форму облачности, нижнюю и верхнюю границу облачности).


Погода в Салдусе - сегодня

Время (UTC), дата Ветер
(°,м/с) 
Видим.   Явления Облачность Т
(°С)
Тd
(°С)
f(%) Тe
(°С)
Pmin
(гПа)
dP
(гПа)
Po
(мм)
O2
(г/м3)
Тmin Tmax R s Состояние
почвы
00 15.10.18 180 (Ю) 4-7  н/о    н/о 
+11.4 +5 65 +11  1022.9  -0.5  757  292           
03 15.10.18 180 (Ю) 2-3  н/о    н/о 
+8.5 +4.6 76 +9  1023.1  757  295           
06 15.10.18 180 (Ю) 2-4  н/о    н/о 
+9.7 +4.6 70 +10  1022.7  757  294           
09 15.10.18 180 (Ю) 3-4  н/о    н/о 
+16.3 +6.3 52 +17  1022.6  0.2  757  287           
12 15.10.18 190 (Ю) 3-5  н/о    н/о 
+19.6 +7.8 46 +20  1021.7  -0.7  756  283           
15 15.10.18 170 (Ю) 3-5  н/о    н/о 
+17.6 +8.4 55 +18  1021.3  -0.5  756  285           
18 15.10.18 180 (Ю) 4-6  н/о    н/о 
+13.6 +7.6 67 +13  1021.2  -0.3  756  289           
21 15.10.18 200 (Ю) 2-5  н/о    н/о 
+12 +6.5 69 +12  1021.2  0.1  756  291           
00 16.10.18 210 (ЮЗ) 2-5  н/о    н/о 
+10.8 +6.2 73 +11  1020.7  -0.6  755  292           
03 16.10.18 200 (Ю) 2-4  н/о    н/о 
+9.7 +5.9 77 +10  1020.2  755  293           
06 16.10.18 200 (Ю) 2-3  н/о    н/о 
+9 +5.6 79 +9  1020.6  0.4  755  294           
09 16.10.18 200 (Ю) 3-5  н/о    н/о 
+14.5 +7.2 62 +15  1021.2  0.8  756  288           
12 16.10.18 200 (Ю) 2-4  н/о    н/о 
+18.8 +8.1 50 +20  1020.8  -0.3  756  283           
15 16.10.18 200 (Ю) 2-3  н/о    н/о 
+15.7 +8.6 63 +16  1021.2  756  286           
18 16.10.18 200 (Ю) 1-2  н/о    н/о 
+10.7 +8 83 +12  1022.2  0.8  756  292           
21 16.10.18 200 (Ю) 2-3  н/о    н/о 
+9.7 +7.7 87 +10  1022.3  756  293           
00 17.10.18 180 (Ю) 1-1  н/о    н/о 
+6.8 +6.7 99 +8  1022.3  0.1  756  296           
03 17.10.18 110 (В) 1-1  н/о    н/о 
+5.4 +5.3 99 +6  1022.1  -0.3  756  298           
06 17.10.18 160 (Ю) 1-1  н/о    н/о 
+6.2 +6.1 99 +7  1022.3  0.2  756  297           
09 17.10.18 200 (Ю) 2-3  н/о    н/о 
+14.1 +7.9 66 +15  1022.5  0.6  757  289           
12 17.10.18 220 (ЮЗ) 2-4  н/о    н/о 
+17.4 +8.7 57 +18  1021.7  -0.6  756  285           
15 17.10.18 200 (Ю) 1-2  н/о    н/о 
+15.4 +9.3 67 +17  1021.7  -0.1  756  287           
18 17.10.18 210 (ЮЗ) 1-1  н/о    н/о 
+9.8 +8.2 90 +11  1022.4  0.4  756  293           
21 17.10.18 200 (Ю) 1-2  н/о    н/о 
+8.1 +7.6 97 +9  1022.3  756  295           
00 18.10.18 200 (Ю) 1-1  н/о    н/о 
+6.1 +5.8 98 +7  1021.7  -0.8  756  297           
Время (UTC), дата Ветер
(°,м/с) 
Видим.   Явления Облачность Т
(°С)
Тd
(°С)
f(%) Тe
(°С)
Pmin
(гПа)
dP
(гПа)
Po
(мм)
O2
(г/м3)
Тmin Tmax R s Состояние
почвы

Для получения пояснительной информации подведите курсор к названию столбца.

ПОГОДА в Салдусе - архив

Всё, что Вы хотите узнать о погоде в Салдусе - удобно и подробно!

Выберите нужную дату (начиная с 1 января 2015* года) и нажмите кнопку "Найти".
Будут отображены архивные сводки погоды по пункту Салдус, начиная с указанной даты.


Отображать данные в формате CSV (для использования в таблицах Excel)


Внимание! Наш архив погоды предназначен исключительно для личного некоммерческого использования в познавательных целях. Если Вам необходимы официальные справки о состоянии погоды (для производственных, юридических, коммерческих и т.п. целей), обращайтесь в органы Росгидромета.

*Примечание: данная дата относится к архиву по метеостанциям СССР (Россия, СНГ, Балтия).
Архив по метеостанциям Зарубежной Европы и Азии (кроме Китая) хранится 10 дней, по другим регионам земного шара (Китай, Африка, Америка, Австралия, Океания) - 1 день.

Салдус - район местоположения метеостанции


Название, широта, долгота, высота метеостанции:
Салдус 56.7°ш. 22.5°д. 112 м над ур. моря [Латвия]

Дополнительная информация

В oтличие oт бoльшинства пoгoдных сайтoв мы публикуем пoдрoбную метеoинфoрмацию в детальнoм прoфессиoнальнoм фoрмате.

Характеристики температуры и влажнoсти вoздуха измеряются на высoте 2 м в тени вдали oт зданий и деревьев.
Скoрoсть ветра измеряется на высoте 10 м (на урoвне рoста челoвека скoрoсть ветра ниже в 1.5-2 раза). Если метеoстанция нахoдится в гoрoде или в лесу, тo скoрoсть ветра занижена на 2-4 м/с пo сравнению с oткрытым местoм. Скoрoсть ветра над акватoриями крупных рек и oзёр, а также на вершинах хoлмoв на 2-5 м/с выше, чем в oбычных услoвиях.
Атмoсфернoе давление в разных тoчках местнoсти мoжет значительнo oтличаться oт давления на метеoстанции, в зависимoсти oт услoвий рельефа (при пoдъёме на 10 м давление пoнижается примернo на 1 мм рт.ст.).